カタログに戻る

COSMOS 2251 DEB

運用中LEO
NORAD 47067·DEBRIS·🇷🇺 Russia

打ち上げ Jun 16, 1993 から Plesetsk Cosmodrome

Loading…

次のパス (今後24時間)

TLE

最新Source: Space-Track

元期: Sep 14, 2026, 06:29 UTC

1 47067U 93036BXX 26257.27042634  .00011602  00000-0  33912-2 0  9995
2 47067  74.2052   3.8327 0162576 138.9067 249.2961 14.36618071740067

AllMySatでCOSMOS 2251 DEBをリアルタイム追跡

Download on the App Store